Regional Weather Roundup
Issued by NWS

Home | Current Version | Previous Version | Text Only | Print | Product List | Glossary On
Versions: 1 2 3 4 5 6 7 8 9 10 11 12 13 14 15 16 17 18 19 20 21 22 23 24 25 26 27 28 29 30 31 32 33 34 35 36 37 38 39 40 41 42 43 44 45 46 47 48 49 50
000
ASUS44 KMEG 031210
RWRTN
TENNESSEE HOURLY STATE WEATHER ROUNDUP
NATIONAL WEATHER SERVICE MEMPHIS TN
700 AM CDT TUE AUG 03 2021

TNZ002-004-019-021-049-052-054-088>092-031300-
WEST TENNESSEE

CITY           SKY/WX    TMP DP  RH WIND       PRES   REMARKS
MEMPHIS INTL   PTCLDY    70  62  76 NE5       30.03R
NWS MEMPHIS      N/A     67 N/A N/A MISG        N/A
JACKSON        CLEAR     63  60  90 NW5       30.05R
DYERSBURG      CLEAR     63  63 100 CALM      30.06R
COVINGTON      CLEAR     64  63  94 NW5       30.04R
UNION CITY     CLEAR     63  63 100 CALM      30.04S
PARIS          SUNNY     61  61 100 CALM      30.04S
LEXINGTON      SUNNY     61  61 100 CALM      30.03R
SELMER         CLEAR     63  61  94 N3        30.02S
SAVANNAH       SUNNY     64  63  94 CALM      30.01S
$$

TNZ008-025-027-028-033-062-065-066-031300-
NORTH MIDDLE TENNESSEE

CITY           SKY/WX    TMP DP  RH WIND       PRES   REMARKS
NASHVILLE      MOSUNNY   65  59  81 CALM      30.04R
DICKSON        SUNNY     61  57  88 CALM      30.03S
PORTLAND       SUNNY     59  59 100 CALM      30.03S
CLARKSVILLE    SUNNY     61  58  90 W3        30.04S
LEBANON        SUNNY     61  61 100 CALM      30.01S
SMYRNA         SUNNY     66  61  82 CALM      30.05
MURFREESBORO   SUNNY     63  61  94 CALM      30.01S
COOKEVILLE     CLOUDY    63  63 100 CALM      30.03S
LIVINGSTON     FOG       63  63 100 NE6       30.04R VSB 0
GALLATIN       SUNNY     61  59  94 CALM      30.05S FOG
CROSSVILLE     SUNNY     60  59  96 CALM      30.06S FOG
$$

TNZ061-075-076-078-094-096-097-031300-
SOUTH MIDDLE TENNESSEE

CITY           SKY/WX    TMP DP  RH WIND       PRES   REMARKS
LAWRENCEBURG   SUNNY     63  61  94 CALM      30.02S
LEWISBURG      SUNNY     61  61 100 CALM      30.02S
FAYETTEVILLE   SUNNY     64  63  94 N6        30.04R
TULLAHOMA      SUNNY     63  61  94 CALM      30.02S
WINCHESTER     SUNNY     63  63 100 CALM      30.02R FOG
MCMINNVILLE    SUNNY     61  61 100 CALM      30.03R FOG
COLUMBIA       SUNNY     61  61 100 CALM      30.01S FOG
SHELBYVILLE    SUNNY     61  61 100 CALM      30.02S FOG
$$

TNZ017-018-042-046-047-031300-
NORTHEAST TENNESSEE

CITY           SKY/WX    TMP DP  RH WIND       PRES   REMARKS
TRI CITIES     MOSUNNY   69  61  75 CALM      30.05R
ELIZABETHTON   PTSUNNY   72  61  68 VRB3      30.05R
GREENEVILLE    MOSUNNY   70  61  73 CALM      30.03R
$$

TNZ012-013-036-069-073-074-031300-
CENTRAL EAST TENNESSEE

CITY           SKY/WX    TMP DP  RH WIND       PRES   REMARKS
KNOXVILLE      PTSUNNY   69  62  78 CALM      30.00S
OAK RIDGE      CLOUDY    67  64  90 CALM      30.03R
DOWNTOWN KNOXV CLOUDY    66  64  94 CALM      30.01S
GATLINBURG     SUNNY     66  64  94 CALM      30.01S
JACKSBORO      CLOUDY    66  63  88 S3          N/A
$$

TNZ083-085-099-031300-
SOUTHEAST TENNESSEE

CITY           SKY/WX    TMP DP  RH WIND       PRES   REMARKS
CHATTANOOGA    MOSUNNY   70  63  78 CALM      30.00S
$$

SKY/WX REPORTED AS FAIR MEANS FEW OR NO CLOUDS BELOW
12 THOUSAND FEET.




USA.gov is the U.S. government's official web portal to all federal, state and local government web resources and services.